When you browse on this site, cookies collect data to enhance your experience and personalize the content and advertising you see.
Visit our Privacy Policy to learn more. By continuing to use the site, you agree to this use of cookies and data.
  • In Lithuania
  • List of Countries
  • For 7 days
  • Water Temperature
  • Satellite Maps
  • Weather Map
  • Weather Widgets
  • user-avatar
    Login

    Hourly Weather Solyanka

    Today, 22 July, Monday

    Time Temperature Precipitation Wind Pressure Humidity
    00:00 +28°C° 0 mm 1 mps 761 mmHg 36%
    01:00 +28°C° 0.1 mm 1 mps 761 mmHg 35%
    02:00 +29°C° 0.1 mm 1 mps 761 mmHg 35%
    03:00 +29°C° 0.1 mm 1 mps 761 mmHg 34%
    04:00 +28°C° 0.2 mm 1 mps 761 mmHg 38%
    05:00 +28°C° 0.2 mm 2 mps 761 mmHg 41%
    06:00 +28°C° 0.2 mm 2 mps 761 mmHg 44%
    07:00 +27°C° 0.2 mm 3 mps 761 mmHg 48%
    08:00 +27°C° 0.2 mm 3 mps 761 mmHg 51%
    09:00 +27°C° 0.2 mm 4 mps 761 mmHg 54%
    10:00 +28°C° 0 mm 4 mps 761 mmHg 49%
    11:00 +29°C° 0 mm 4 mps 761 mmHg 45%
    12:00 +32°C° 0 mm 4 mps 761 mmHg 40%
    13:00 +32°C° 0.1 mm 4 mps 761 mmHg 40%
    14:00 +32°C° 0.1 mm 5 mps 761 mmHg 39%
    15:00 +32°C° 0.1 mm 5 mps 760 mmHg 38%
    16:00 +32°C° 0 mm 5 mps 760 mmHg 39%
    17:00 +30°C° 0 mm 4 mps 761 mmHg 39%
    18:00 +30°C° 0 mm 4 mps 761 mmHg 39%
    19:00 +28°C° 0 mm 3 mps 761 mmHg 44%
    20:00 +27°C° 0 mm 2 mps 761 mmHg 48%
    21:00 +26°C° 0 mm 2 mps 761 mmHg 52%
    22:00 +25°C° 0 mm 1 mps 761 mmHg 53%
    23:00 +25°C° 0 mm 1 mps 761 mmHg 54%

    Tomorrow, 23 July, Tuesday

    Time Temperature Precipitation Wind Pressure Humidity
    00:00 +22°C° 0 mm 0 mps 761 mmHg 55%
    01:00 +24°C° 0 mm 1 mps 761 mmHg 54%
    02:00 +24°C° 0 mm 1 mps 761 mmHg 54%
    03:00 +23°C° 0 mm 1 mps 761 mmHg 54%
    04:00 +24°C° 0 mm 1 mps 761 mmHg 51%
    05:00 +25°C° 0 mm 1 mps 761 mmHg 48%
    06:00 +26°C° 0 mm 1 mps 761 mmHg 46%
    07:00 +28°C° 0 mm 2 mps 761 mmHg 41%
    08:00 +30°C° 0 mm 2 mps 761 mmHg 36%
    09:00 +33°C° 0 mm 3 mps 761 mmHg 31%
    10:00 +33°C° 0 mm 3 mps 761 mmHg 29%
    11:00 +34°C° 0 mm 3 mps 761 mmHg 27%
    12:00 +35°C° 0 mm 3 mps 761 mmHg 24%
    13:00 +35°C° 0 mm 3 mps 760 mmHg 23%
    14:00 +36°C° 0 mm 3 mps 760 mmHg 22%
    15:00 +36°C° 0 mm 3 mps 759 mmHg 21%
    16:00 +35°C° 0 mm 3 mps 759 mmHg 24%
    17:00 +35°C° 0 mm 4 mps 759 mmHg 27%
    18:00 +34°C° 0 mm 4 mps 759 mmHg 30%
    19:00 +32°C° 0 mm 4 mps 759 mmHg 37%
    20:00 +29°C° 0 mm 3 mps 759 mmHg 44%
    21:00 +27°C° 0 mm 3 mps 759 mmHg 51%
    22:00 +27°C° 0 mm 3 mps 759 mmHg 51%
    23:00 +27°C° 0 mm 2 mps 759 mmHg 51%

    Day after tomorrow, 24 July, Wednesday

    Time Temperature Precipitation Wind Pressure Humidity
    00:00 +26°C° 0 mm 2 mps 759 mmHg 50%
    01:00 +26°C° 0 mm 2 mps 759 mmHg 51%
    02:00 +26°C° 0 mm 2 mps 759 mmHg 51%
    03:00 +25°C° 0 mm 2 mps 759 mmHg 52%
    04:00 +26°C° 0 mm 2 mps 759 mmHg 49%
    05:00 +27°C° 0 mm 3 mps 759 mmHg 45%
    06:00 +28°C° 0 mm 3 mps 759 mmHg 42%
    07:00 +30°C° 0 mm 4 mps 759 mmHg 36%
    08:00 +33°C° 0 mm 5 mps 759 mmHg 29%
    09:00 +35°C° 0 mm 5 mps 759 mmHg 22%
    10:00 +36°C° 0 mm 5 mps 759 mmHg 21%
    11:00 +37°C° 0 mm 5 mps 758 mmHg 20%
    12:00 +39°C° 0 mm 5 mps 758 mmHg 19%
    13:00 +39°C° 0 mm 5 mps 758 mmHg 19%
    14:00 +39°C° 0 mm 6 mps 758 mmHg 19%
    15:00 +39°C° 0 mm 6 mps 758 mmHg 18%
    16:00 +37°C° 0 mm 5 mps 758 mmHg 19%
    17:00 +36°C° 0 mm 5 mps 757 mmHg 20%
    18:00 +36°C° 0 mm 4 mps 757 mmHg 21%
    19:00 +34°C° 0 mm 3 mps 758 mmHg 25%
    20:00 +30°C° 0 mm 2 mps 758 mmHg 29%
    21:00 +28°C° 0 mm 1 mps 758 mmHg 33%
    22:00 +28°C° 0 mm 1 mps 758 mmHg 33%
    23:00 +28°C° 0 mm 1 mps 758 mmHg 33%

    25 July, Thursday

    Time Temperature Precipitation Wind Pressure Humidity
    00:00 +27°C° 0 mm 1 mps 758 mmHg 34%
    01:00 +27°C° 0 mm 2 mps 758 mmHg 33%
    02:00 +27°C° 0 mm 2 mps 758 mmHg 32%
    03:00 +27°C° 0 mm 3 mps 757 mmHg 32%
    04:00 +27°C° 0 mm 3 mps 757 mmHg 31%
    05:00 +28°C° 0 mm 3 mps 757 mmHg 30%
    06:00 +29°C° 0 mm 4 mps 757 mmHg 30%
    07:00 +32°C° 0 mm 4 mps 757 mmHg 28%
    08:00 +34°C° 0 mm 4 mps 757 mmHg 25%
    09:00 +36°C° 0 mm 4 mps 757 mmHg 23%
    10:00 +37°C° 0 mm 4 mps 757 mmHg 22%
    11:00 +38°C° 0 mm 3 mps 757 mmHg 21%
    12:00 +38°C° 0 mm 3 mps 757 mmHg 21%
    13:00 +39°C° 0 mm 3 mps 757 mmHg 21%
    14:00 +39°C° 0 mm 3 mps 757 mmHg 21%
    15:00 +39°C° 0 mm 3 mps 757 mmHg 21%
    16:00 +37°C° 0 mm 4 mps 757 mmHg 24%
    17:00 +35°C° 0 mm 6 mps 757 mmHg 28%
    18:00 +34°C° 0 mm 7 mps 757 mmHg 32%
    19:00 +32°C° 0 mm 7 mps 757 mmHg 35%
    20:00 +30°C° 0 mm 7 mps 757 mmHg 38%
    21:00 +29°C° 0 mm 7 mps 758 mmHg 41%
    22:00 +29°C° 0 mm 7 mps 758 mmHg 40%
    23:00 +29°C° 0 mm 6 mps 758 mmHg 39%

    26 July, Friday

    Time Temperature Precipitation Wind Pressure Humidity
    00:00 +29°C° 0 mm 5 mps 757 mmHg 38%
    01:00 +29°C° 0 mm 4 mps 757 mmHg 40%
    02:00 +28°C° 0 mm 4 mps 757 mmHg 42%
    03:00 +27°C° 0 mm 3 mps 757 mmHg 44%
    04:00 +27°C° 0 mm 3 mps 757 mmHg 46%
    05:00 +27°C° 0 mm 3 mps 757 mmHg 47%
    06:00 +27°C° 0 mm 3 mps 757 mmHg 48%
    07:00 +29°C° 0 mm 3 mps 757 mmHg 43%
    08:00 +32°C° 0 mm 4 mps 756 mmHg 38%
    09:00 +34°C° 0 mm 4 mps 756 mmHg 33%
    10:00 +35°C° 0 mm 3 mps 756 mmHg 30%
    11:00 +36°C° 0 mm 3 mps 756 mmHg 28%
    12:00 +38°C° 0 mm 3 mps 756 mmHg 25%
    13:00 +38°C° 0 mm 3 mps 755 mmHg 25%
    14:00 +38°C° 0 mm 4 mps 755 mmHg 24%
    15:00 +38°C° 0 mm 4 mps 754 mmHg 24%
    16:00 +37°C° 0.1 mm 4 mps 754 mmHg 26%
    17:00 +36°C° 0.1 mm 4 mps 754 mmHg 29%
    18:00 +35°C° 0.1 mm 5 mps 754 mmHg 31%
    19:00 +34°C° 0.1 mm 4 mps 754 mmHg 34%
    20:00 +33°C° 0.1 mm 4 mps 754 mmHg 36%
    21:00 +30°C° 0.1 mm 4 mps 754 mmHg 39%
    22:00 +30°C° 0.1 mm 3 mps 754 mmHg 41%
    23:00 +29°C° 0.1 mm 3 mps 754 mmHg 43%

    27 July, Saturday

    Time Temperature Precipitation Wind Pressure Humidity
    00:00 +29°C° 0.1 mm 3 mps 754 mmHg 45%
    01:00 +28°C° 0.1 mm 2 mps 753 mmHg 48%
    02:00 +28°C° 0.1 mm 2 mps 753 mmHg 51%
    03:00 +27°C° 0.1 mm 2 mps 753 mmHg 53%
    04:00 +27°C° 0 mm 3 mps 753 mmHg 54%
    05:00 +27°C° 0 mm 3 mps 753 mmHg 54%
    06:00 +27°C° 0 mm 4 mps 753 mmHg 55%
    07:00 +29°C° 0 mm 4 mps 752 mmHg 50%
    08:00 +30°C° 0 mm 4 mps 752 mmHg 46%
    09:00 +32°C° 0 mm 5 mps 752 mmHg 41%
    10:00 +33°C° 0 mm 5 mps 752 mmHg 37%
    11:00 +35°C° 0 mm 5 mps 752 mmHg 34%
    12:00 +36°C° 0 mm 5 mps 752 mmHg 30%
    13:00 +36°C° 0 mm 5 mps 751 mmHg 30%
    14:00 +36°C° 0 mm 6 mps 751 mmHg 29%
    15:00 +35°C° 0 mm 6 mps 750 mmHg 29%
    16:00 +35°C° 0 mm 6 mps 750 mmHg 31%
    17:00 +34°C° 0 mm 6 mps 750 mmHg 33%
    18:00 +33°C° 0 mm 6 mps 750 mmHg 35%
    19:00 +32°C° 0 mm 6 mps 750 mmHg 40%
    20:00 +29°C° 0 mm 5 mps 750 mmHg 45%
    21:00 +28°C° 0 mm 4 mps 751 mmHg 50%
    22:00 +27°C° 0 mm 4 mps 751 mmHg 52%
    23:00 +26°C° 0 mm 4 mps 751 mmHg 54%
    Show more